SCP
2 2 2 2 1 1 1 1 1 1 1 1 1 0 0 0 0 0 0 0 0 0 0 0 0 0 0 0 0 0 0 0 0 0 0 0 0 0 0 0 0 0 0
2 2 2 2 1 1 1 1 1 1 1 1 1 1 1 1 1 0 0 0 0 0 0 0 0 0 0 0 0 0 0 0 0 0 0 0 0 0 0 0 0 0 0
2 2 2 2 2 1 1 1 1 1 1 1 1 1 1 1 1 1 0 0 0 0 0 0 0 0 0 0 0 0 0 0 0 0 0 0 0 0 0 0 0 0 0
2 2 2 2 2 2 2 1 1 1 1 1 1 1 1 1 1 1 0 0 0 0 0 0 0 0 0 1 0 0 0 0 0 0 0 0 0 0 0 0 0 0 0
2 2 2 2 3 2 2 2 2 1 1 1 1 1 1 1 1 1 1 1 1 1 1 1 0 0 1 1 1 0 0 0 0 0 0 0 0 0 0 0 0 0 0
3 3 2 2 3 2 2 2 2 2 1 1 1 1 1 1 1 1 1 1 1 1 1 1 1 1 1 1 1 0 0 0 0 0 0 0 0 0 0 0 0 0 0
3 3 2 2 2 2 2 2 2 2 2 1 1 1 1 1 1 1 1 1 1 1 1 1 1 1 1 1 1 0 0 0 0 0 0 0 0 0 0 0 0 0 0
3 3 2 2 2 2 2 2 2 2 2 2 1 1 1 1 1 1 1 1 1 1 1 1 1 1 1 1 1 1 1 0 0 0 0 0 0 0 0 0 0 0 0
2 2 2 2 2 2 2 2 2 2 2 1 1 1 1 1 1 1 1 1 1 1 1 1 1 1 1 1 1 1 1 0 0 0 0 0 0 0 0 0 0 0 0
2 2 2 2 1 1 1 1 1 1 1 1 1 1 1 1 1 1 1 1 1 1 1 1 1 1 1 1 1 1 1 1 0 1 1 1 0 0 0 0 0 0 0
3 2 2 1 1 1 1 1 1 1 1 1 1 1 1 1 1 1 1 1 1 1 1 1 1 1 1 1 1 1 1 1 1 1 1 1 1 0 0 0 0 0 0
3 2 2 2 1 1 1 1 1 1 1 1 1 1 1 1 1 1 1 1 1 1 1 1 1 1 1 1 1 1 1 1 1 1 1 1 1 0 0 0 0 0 0
2 2 2 2 1 1 1 1 1 1 1 1 1 1 1 1 1 1 1 1 1 1 1 1 1 1 1 1 1 1 1 1 2 1 1 1 1 1 1 0 0 0 0
1 1 2 2 2 1 1 1 1 1 1 1 1 1 1 1 1 1 2 2 2 2 1 1 1 1 1 1 1 1 1 1 1 1 1 1 1 1 1 1 1 0 0
1 1 1 1 1 1 1 1 1 1 1 1 1 1 1 1 1 1 1 2 2 2 2 2 1 1 1 1 1 1 1 1 1 1 1 1 1 1 1 1 1 1 1
1 1 1 1 1 1 1 1 1 1 1 1 1 1 1 1 1 1 1 2 2 2 2 2 1 1 1 1 1 1 1 1 1 1 1 1 1 1 1 1 1 1 1
0 0 1 1 1 1 1 1 1 1 1 1 1 1 1 1 1 1 1 1 2 2 2 2 2 1 1 1 1 1 1 1 1 1 1 1 1 1 1 1 1 1 1
0 0 0 0 1 1 1 1 1 1 1 1 1 1 1 1 1 1 1 1 1 2 2 2 2 2 1 1 1 1 1 1 1 1 1 1 1 1 1 0 1 1 1
0 0 0 0 1 1 1 1 1 1 1 1 1 1 1 1 1 1 1 1 1 2 2 2 2 2 1 1 1 1 1 1 1 1 1 1 1 1 1 1 0 1 1
0 0 0 0 0 0 1 1 1 1 1 1 1 1 1 1 1 1 1 1 1 2 2 2 2 2 1 1 1 1 1 1 1 1 1 1 1 1 1 1 1 1 1
0 0 0 0 0 0 0 1 1 1 1 1 1 1 1 1 1 1 1 1 1 1 2 2 2 2 1 1 1 1 1 1 1 1 1 1 1 1 1 1 1 1 1
0 0 0 0 0 0 0 0 0 0 0 0 0 0 1 1 1 1 1 1 1 1 1 2 2 2 1 1 1 1 1 1 1 1 2 2 1 1 1 1 1 1 1
0 0 0 0 0 0 0 0 0 0 0 0 0 0 0 1 1 1 1 1 1 1 1 2 2 2 2 1 1 1 1 1 1 1 2 2 2 2 1 1 1 2 2
0 0 0 0 0 0 0 0 0 0 0 0 0 0 0 1 1 1 1 0 1 1 1 1 2 2 2 1 1 1 1 1 1 1 1 1 2 2 1 1 1 1 1
0 0 0 0 0 0 0 0 0 0 0 0 0 0 0 1 1 1 0 0 0 0 1 1 2 2 2 2 1 1 1 1 1 1 1 1 1 2 1 1 1 1 1
0 0 0 0 0 0 0 0 0 0 0 0 0 0 0 1 1 1 0 0 0 0 0 1 1 1 2 2 2 1 1 1 1 1 1 1 1 1 1 1 1 1 1
Wind_Speed
2 3 4 5 8 8 8 8 8 9 9 9 9 9 9 9 9 9 8 8 7 7 7 8 8 8 8 8 8 8 8 8 9 9 9 8 8 9 9 7 4 8 9
2 4 6 6 7 8 8 8 7 8 8 8 8 9 9 8 8 8 8 8 7 7 7 7 8 8 8 8 8 8 8 8 8 8 6 6 7 7 8 7 6 7 8
3 4 7 6 6 7 7 7 7 7 7 7 8 8 8 8 7 7 7 7 7 6 7 7 7 7 7 7 7 8 8 8 7 5 2 4 7 6 7 6 6 7 7
4 4 6 7 6 6 6 6 6 7 7 7 7 7 7 7 7 7 6 7 6 6 6 7 7 6 7 7 7 7 7 6 5 2 2 3 5 6 5 5 5 5 6
5 5 7 6 6 6 6 6 5 5 5 5 6 6 6 7 7 6 6 6 5 6 6 6 6 6 6 7 7 7 6 5 3 3 2 2 3 5 4 4 4 4 5
5 5 7 6 5 5 5 5 4 4 4 4 5 5 6 6 6 6 5 5 5 6 6 6 7 6 6 7 7 6 6 5 6 2 2 2 3 4 3 3 3 3 3
5 5 6 6 6 5 4 4 4 3 3 3 4 4 5 6 6 5 5 5 5 6 7 7 7 7 7 7 7 7 6 4 4 2 2 2 2 3 3 3 2 2 2
5 4 5 6 6 5 4 3 2 2 2 2 2 3 3 4 5 5 5 6 6 6 7 7 8 7 7 7 7 7 6 6 5 3 3 2 2 2 2 3 2 2 2
5 4 4 3 3 4 4 4 3 2 1 1 1 1 1 2 3 4 5 6 6 6 7 7 8 8 8 7 7 6 6 6 6 3 3 2 2 4 4 3 4 3 3
6 5 4 3 2 1 1 3 2 2 1 1 1 1 2 3 4 5 6 6 6 6 7 7 8 8 8 7 7 7 6 7 7 5 4 3 4 6 6 5 5 5 5
6 5 4 4 3 2 1 1 1 1 0 2 3 3 4 5 5 6 6 4 6 6 6 7 8 7 7 8 7 7 7 6 6 4 4 3 6 8 7 7 6 6 6
5 5 5 4 3 3 2 1 2 1 2 3 3 3 4 4 4 4 4 5 6 6 7 8 8 8 9 7 8 9 6 7 6 5 3 4 7 9 9 8 7 7 7
4 4 5 4 4 3 2 2 2 2 2 3 3 3 4 4 3 4 3 4 6 7 7 7 8 8 7 6 5 7 7 6 5 4 4 6 8 10 10 9 8 8 8
3 4 5 5 4 4 3 2 2 2 2 2 3 4 3 3 4 4 4 4 4 4 5 6 5 7 8 8 8 8 8 6 5 4 3 6 8 10 10 10 9 9 9
3 4 5 5 4 4 3 2 2 2 3 3 3 4 4 4 4 4 4 4 5 4 5 5 6 7 7 8 8 8 9 9 8 7 4 6 8 9 10 10 10 10 10
3 4 4 5 4 4 3 3 3 3 3 3 3 4 5 4 4 4 5 5 5 5 5 6 7 6 6 6 8 9 9 9 8 8 6 6 9 9 10 11 11 11 10
4 4 5 5 5 4 4 4 3 3 3 3 3 3 4 4 4 4 5 5 5 5 6 6 7 6 6 6 8 9 8 8 8 9 8 6 6 9 10 11 11 11 11
3 4 5 4 5 5 4 4 3 3 3 3 3 3 4 4 5 4 4 5 5 5 5 5 5 5 6 6 7 6 7 6 9 9 8 7 6 6 8 10 11 11 11
3 4 4 4 5 4 4 3 3 3 3 3 3 3 4 4 5 4 4 4 5 4 5 5 5 5 6 6 6 6 6 7 7 8 9 9 8 7 6 7 9 9 10
3 4 4 4 5 4 3 3 2 2 2 2 3 3 4 4 4 5 4 5 5 4 5 5 6 6 5 5 6 6 7 7 7 7 8 8 7 8 8 8 7 7 10
3 4 4 4 4 4 3 3 3 3 3 3 3 4 4 4 4 4 4 4 5 5 6 6 5 6 6 4 4 5 6 8 8 7 7 7 8 8 8 8 7 6 5
3 4 4 4 4 4 3 3 3 4 3 3 3 4 4 4 4 4 4 4 5 5 6 6 6 5 4 4 4 4 4 5 7 7 6 7 8 6 7 8 7 7 5
3 4 4 5 5 4 4 3 3 3 3 3 3 3 4 4 4 4 4 4 4 5 5 5 6 6 5 5 4 4 4 5 3 4 6 6 6 5 5 5 6 6 5
3 3 4 4 4 4 3 3 4 4 4 4 4 4 4 4 4 4 4 4 4 4 5 5 5 5 6 5 4 5 5 4 4 4 4 4 5 5 5 4 4 4 4
3 3 3 3 3 4 4 4 4 4 4 4 4 4 4 4 4 4 4 4 4 4 4 5 5 5 5 5 4 4 4 5 6 6 5 4 4 4 4 4 3 3 3
2 2 3 3 4 4 4 4 5 5 5 5 5 4 4 3 3 3 4 4 4 3 4 4 4 5 4 5 4 4 4 4 4 5 6 5 4 3 3 2 2 2 2
Wind_Direction
127 127 119 146 145 142 139 136 134 134 137 141 143 144 143 144 145 144 141 136 134 130 125 125 125 121 115 110 108 104 101 96 93 89 83 81 86 94 91 83 89 92 86
135 139 122 142 147 147 141 139 137 138 140 144 148 149 149 149 149 149 148 145 142 137 130 129 129 124 120 116 112 108 104 99 94 89 91 102 89 90 90 74 53 81 89
113 126 128 124 138 141 142 140 140 142 145 148 151 152 153 154 155 151 154 153 151 145 139 134 130 128 126 125 121 115 110 107 103 105 186 127 109 98 97 90 85 92 94
99 113 117 108 122 129 133 137 142 149 151 153 155 157 158 161 162 161 161 159 158 151 145 139 135 135 136 136 131 124 119 116 115 192 173 103 111 104 103 100 96 99 98
95 93 95 95 111 121 123 128 137 145 154 159 160 159 163 167 168 169 167 164 159 153 147 145 145 145 146 145 142 137 133 131 152 215 113 113 110 113 115 103 98 105 102
90 84 89 82 98 106 113 121 128 142 156 157 161 164 165 165 168 170 169 168 162 160 157 158 159 159 159 158 157 152 148 156 200 157 136 136 116 119 132 122 113 110 106
87 77 86 74 78 93 101 110 121 132 142 159 169 176 180 180 176 174 170 173 175 177 174 173 173 172 171 173 173 168 162 184 216 169 167 158 109 128 152 151 152 135 126
79 76 83 75 67 67 75 90 109 129 140 148 165 187 189 188 191 187 183 182 182 188 188 186 185 184 183 183 183 179 176 206 210 201 197 180 111 193 184 175 189 193 193
69 67 66 79 87 75 64 56 57 72 101 158 194 219 213 198 197 198 194 193 194 195 197 196 196 194 192 192 189 184 183 214 235 208 211 200 156 222 215 202 207 215 222
53 48 48 48 48 63 90 62 41 42 18 266 232 240 237 215 207 203 209 203 205 204 205 205 203 201 199 196 194 190 188 210 230 221 220 183 194 229 230 219 220 224 229
45 33 31 30 23 16 1 3 245 187 238 240 212 208 225 225 219 210 214 205 213 214 212 212 209 205 202 197 195 191 201 225 224 230 227 178 215 229 233 231 227 230 234
38 28 22 18 7 357 342 311 276 258 241 247 243 230 236 241 237 243 199 210 217 219 216 214 214 208 216 209 192 196 220 227 233 225 215 193 227 232 234 235 233 230 233
31 24 15 6 0 351 336 322 305 285 267 256 256 253 253 249 242 239 226 208 216 217 220 210 213 219 223 221 217 216 227 231 231 229 211 197 230 236 235 236 237 232 232
19 13 5 358 356 348 332 319 302 289 280 274 263 260 258 252 250 246 240 235 231 228 230 228 232 229 231 229 229 230 228 230 233 232 217 195 227 238 239 239 240 236 235
8 359 354 352 348 342 330 313 302 288 284 280 271 260 255 253 252 248 248 243 240 241 237 238 237 235 235 236 236 238 238 236 238 234 218 194 220 234 241 243 243 240 239
356 348 345 347 344 336 328 317 304 293 284 283 283 275 263 256 254 254 251 249 247 245 243 242 243 239 236 238 241 242 242 240 239 239 240 210 209 226 238 244 243 243 243
346 343 342 340 340 335 327 319 309 301 293 285 279 280 275 267 258 254 253 251 251 251 247 246 244 244 241 238 242 243 246 245 244 242 238 240 223 213 226 239 242 244 246
342 343 343 338 335 333 328 317 309 307 303 296 291 280 272 268 262 252 251 251 254 252 249 247 245 243 242 240 242 243 244 246 249 247 240 234 237 233 216 223 238 245 248
342 340 340 339 332 328 321 310 307 306 307 302 296 296 291 279 271 259 253 252 251 249 246 247 247 245 247 246 247 247 246 244 244 245 245 241 236 236 240 211 217 236 246
337 338 337 335 332 326 317 310 304 302 308 305 302 305 301 290 279 268 260 256 249 245 244 244 248 245 248 249 253 252 249 245 243 242 246 246 241 238 240 243 229 222 227
332 335 334 331 332 328 321 313 306 306 311 310 317 319 307 297 287 273 268 260 251 245 246 246 248 247 244 242 252 256 253 245 242 240 240 244 242 240 242 241 240 241 223
321 327 323 324 324 323 319 316 301 301 301 306 307 309 310 305 297 281 273 268 260 253 247 244 245 249 249 234 241 258 259 248 236 236 235 238 242 237 236 239 241 241 244
311 321 319 318 317 318 316 304 293 282 278 284 293 297 303 302 296 289 280 272 270 263 257 251 246 246 249 241 236 242 250 252 273 236 236 238 240 239 237 236 239 242 244
302 311 307 310 313 314 307 293 292 289 290 297 299 297 300 297 296 295 290 282 276 272 267 259 250 249 250 245 241 245 261 273 264 263 240 240 245 246 245 242 241 241 241
291 301 302 305 308 309 301 294 288 282 286 290 291 293 296 296 298 300 293 285 281 278 277 273 264 254 251 250 245 246 253 256 252 257 260 249 246 248 256 255 251 245 248
278 292 299 300 306 309 302 294 288 286 287 290 292 293 293 295 304 308 298 290 287 282 280 278 272 261 255 255 252 244 244 246 249 251 255 255 258 263 264 265 263 263 269